Location: Unspecified
(19.4326°N, 99.1332°W)
Time: 00:04:02
(UTC-06:00)

ISS - Visible Passes

Search period start: 25 February 2018 00:00
Search period end: 07 March 2018 00:00
Orbit: 402 x 407 km, 51.6° (Epoch: 25 February)

Date Brightness Start Highest point End Pass type
(mag) Time Alt. Az. Time Alt. Az. Time Alt. Az.
25 Feb -0.2 04:46:53 10° E 04:46:53 10° E 04:46:57 10° E visible
25 Feb -2.5 06:19:38 14° W 06:21:37 23° NW 06:24:18 10° N visible
26 Feb -2.5 05:30:38 31° NNE 05:30:38 31° NNE 05:32:34 10° NNE visible
